DW2465 Weather Reports


time (UTC)temp
F
wind
direction
speed
knots
gust
knots
rain 1hr
in
rain 24hr
in
rain mn
in
humidity
%
barometer
mb
20260901083002 65 290 0.0 0.0 0.00 0.00 0.00 92 1011.2
20260901081501 65 290 0.0 0.0 0.00 0.00 0.00 91 1010.9
20260901080112 65 290 0.0 0.0 0.00 0.00 0.00 90 1010.9
20260901074528 65 290 0.0 0.0 0.00 0.00 0.00 90 1011.1
20260901073030 65 290 0.0 0.0 0.00 0.00 0.00 90 1011.1
20260901071524 66 290 0.0 0.0 0.00 0.00 0.00 89 1011.4
20260901070028 66 290 0.0 0.0 0.00 0.00 0.00 89 1011.4
20260901064524 66 290 0.0 0.0 0.00 0.00 0.00 88 1011.3
20260901063020 67 290 0.0 0.0 0.00 0.00 0.00 87 1011.5
20260901061515 68 290 0.0 0.0 0.00 0.00 0.00 85 1011.6
20260901060016 68 290 0.0 0.0 0.00 0.00 0.00 84 1011.5
20260901054509 69 290 0.0 0.0 0.00 0.00 0.00 82 1011.4
20260901053007 69 290 0.0 0.0 0.00 0.00 0.00 81 1011.3
20260901051501 70 298 0.0 0.0 0.00 0.00 0.00 80 1011.2
20260901050059 70 288 0.0 0.0 0.00 0.00 0.00 80 1010.8
20260901044558 70 289 0.0 0.0 0.00 0.00 0.00 80 1010.8
20260901043057 70 291 0.0 0.0 0.00 0.00 0.00 82 1010.7
20260901041554 69 246 0.0 0.0 0.00 0.00 0.00 83 1010.6
20260901040054 69 246 0.0 0.0 0.00 0.00 0.00 84 1010.7
20260901034553 69 242 0.0 0.0 0.00 0.00 0.00 84 1010.6
20260901033051 70 242 0.0 0.0 0.00 0.00 0.00 84 1010.7
20260901031527 71 242 0.0 0.0 0.00 0.00 0.00 82 1010.7
20260901030020 71 242 0.0 0.0 0.00 0.00 0.00 81 1010.4
20260901024517 72 242 0.0 0.0 0.00 0.00 0.00 80 1010.4
20260901023016 72 242 0.0 0.0 0.00 0.00 0.00 78 1010.3
20260901021528 73 240 0.0 0.0 0.00 0.00 0.00 77 1010.1
20260901020015 73 269 0.0 0.0 0.00 0.00 0.00 77 1010.1
20260901014511 74 269 0.0 0.0 0.00 0.00 0.00 75 1010.0
20260901013009 75 271 0.0 0.0 0.00 0.00 0.00 74 1009.7
20260901011511 76 275 0.0 0.0 0.00 0.00 0.00 73 1009.6
20260901010022 77 262 0.0 0.0 0.00 0.00 0.00 71 1009.6
20260901004505 78 263 0.0 0.0 0.00 0.00 0.00 68 1009.6
20260901003004 79 261 0.0 0.0 0.00 0.00 0.00 66 1009.4
20260901001504 80 253 0.0 0.0 0.00 0.00 0.00 65 1009.6
20260901000002 81 262 0.0 0.0 0.00 0.00 0.00 62 1009.5
20260831234600 82 258 0.0 0.0 0.00 0.00 0.00 60 1009.5
20260831233100 83 252 0.0 0.0 0.00 0.00 0.00 58 1009.4
20260831231612 84 252 0.0 0.0 0.00 0.00 0.00 54 1009.4
20260831230059 86 253 0.0 0.0 0.00 0.00 0.00 50 1009.4
20260831224555 84 272 0.0 0.0 0.00 0.00 0.00 51 1009.4
20260831223102 85 296 0.0 0.0 0.00 0.00 0.00 51 1009.3
20260831221558 84 261 0.0 0.0 0.00 0.00 0.00 53 1009.4
20260831220053 85 274 0.0 0.0 0.00 0.00 0.00 52 1009.0
20260831214521 86 284 0.0 0.0 0.00 0.00 0.00 50 1009.0
20260831213031 87 296 0.0 0.0 0.00 0.00 0.00 47 1008.8
20260831211517 87 288 0.0 0.0 0.00 0.00 0.00 47 1008.8
20260831210017 87 298 0.0 0.0 0.00 0.00 0.00 45 1008.8
20260831204517 87 312 0.0 0.0 0.00 0.00 0.00 47 1008.7
20260831203013 87 273 0.0 0.0 0.00 0.00 0.00 48 1008.7
20260831201511 87 9 0.0 0.0 0.00 0.00 0.00 48 1008.7
20260831200018 87 341 0.0 0.0 0.00 0.00 0.00 48 1008.7
20260831194510 87 332 0.0 0.0 0.00 0.00 0.00 47 1008.6
20260831193010 86 284 0.0 0.0 0.00 0.00 0.00 50 1008.7
20260831191501 85 316 0.0 0.0 0.00 0.00 0.00 54 1008.6
20260831190107 85 275 0.0 0.0 0.00 0.00 0.00 51 1008.5
20260831184600 85 304 0.0 0.0 0.00 0.00 0.00 54 1008.6
20260831183058 84 311 0.0 0.0 0.00 0.00 0.00 53 1008.6
20260831181556 84 331 0.0 0.0 0.00 0.00 0.00 60 1008.6
20260831180049 83 285 0.0 0.0 0.00 0.00 0.00 62 1008.7
20260831174548 83 269 0.0 0.0 0.00 0.00 0.00 65 1008.7
20260831173043 83 309 0.0 0.0 0.00 0.00 0.00 68 1008.8
20260831171544 81 348 0.0 0.0 0.00 0.00 0.00 72 1008.8
20260831170007 80 11 0.0 0.0 0.00 0.00 0.00 74 1008.9
20260831164503 80 306 0.0 0.0 0.00 0.00 0.00 78 1008.8
20260831163058 79 302 0.0 0.0 0.00 0.00 0.00 79 1008.8
20260831161558 79 323 0.0 0.0 0.00 0.00 0.00 81 1008.6
20260831160056 79 311 0.0 0.0 0.00 0.00 0.00 80 1008.7
20260831154555 78 302 0.0 0.0 0.00 0.00 0.00 82 1008.6
20260831153053 78 277 0.0 0.0 0.00 0.00 0.00 83 1008.6
20260831151553 78 298 0.0 0.0 0.00 0.00 0.00 83 1008.3
20260831150046 78 274 0.0 0.0 0.00 0.00 0.00 84 1008.0
20260831144600 77 297 0.0 0.0 0.00 0.00 0.00 84 1007.7
20260831143036 76 257 0.0 0.0 0.00 0.00 0.00 88 1007.6
20260831141532 75 302 0.0 0.0 0.00 0.00 0.00 90 1007.7
20260831140031 74 260 0.0 0.0 0.00 0.00 0.00 91 1007.6
20260831134526 73 263 0.0 0.0 0.00 0.00 0.00 93 1007.2
20260831133022 72 257 0.0 0.0 0.00 0.00 0.00 94 1007.0
20260831131522 72 259 0.0 0.0 0.00 0.00 0.00 95 1007.0
20260831130019 71 260 0.0 0.0 0.00 0.00 0.00 95 1006.8
20260831124517 71 225 0.0 0.0 0.00 0.00 0.00 95 1006.6
20260831123013 70 227 0.0 0.0 0.00 0.00 0.00 95 1006.3
20260831121512 70 226 0.0 0.0 0.00 0.00 0.00 95 1006.1
20260831120012 70 229 0.0 0.0 0.00 0.00 0.00 95 1006.0
20260831114511 70 229 0.0 0.0 0.00 0.00 0.00 95 1005.7
20260831113009 70 228 0.0 0.0 0.00 0.00 0.00 95 1005.8
20260831111507 70 221 0.0 0.0 0.00 0.00 0.00 94 1005.7
20260831110005 70 221 0.0 0.0 0.00 0.00 0.00 94 1005.2
20260831104512 70 220 0.0 0.0 0.00 0.00 0.00 94 1005.1
20260831103001 71 223 0.0 0.0 0.00 0.00 0.00 94 1005.1
20260831101602 71 213 0.0 0.0 0.00 0.00 0.00 94 1005.2
20260831100119 71 194 0.0 0.0 0.00 0.00 0.00 94 1005.3
20260831094559 71 204 0.0 0.0 0.00 0.00 0.00 94 1005.1
20260831093056 71 219 0.0 0.0 0.00 0.00 0.00 93 1005.0
20260831091600 71 202 0.0 0.0 0.00 0.00 0.00 93 1005.0
20260831090054 71 215 0.0 0.0 0.00 0.00 0.00 93 1005.0
20260831084631 71 171 0.0 0.0 0.00 0.00 0.00 93 1005.0